This is the latest recevied weather packets stored in our database for station/object WY7EM. If no packets are shown the sender has not sent any weather packets the latest 10 day(s).
| Time | Temp. | Humidity | Pressure | Rain* | Wind** | Luminosity | Snow |
|---|---|---|---|---|---|---|---|
| 1778245543 | 16.11° C | 25% | 1015.4 hPa | 0 mm | - | 24 W/m² | - |
| 1778245239 | 16.11° C | 25% | 1015.2 hPa | 0 mm | - | 22 W/m² | - |
| 1778244935 | 15.56° C | 24% | 1015.2 hPa | 0 mm | - | 19 W/m² | - |
| 1778244633 | 15° C | 26% | 1015.2 hPa | 0 mm | - | 17 W/m² | - |
| 1778244331 | 15° C | 25% | 1015.2 hPa | 0 mm | - | 14 W/m² | - |
| 1778244027 | 15° C | 25% | 1015.2 hPa | 0 mm | - | 11 W/m² | - |
| 1778243726 | 15° C | 25% | 1015.2 hPa | 0 mm | - | 8 W/m² | - |
| 1778243422 | 15° C | 25% | 1014.9 hPa | 0 mm | - | 6 W/m² | - |
| 1778243119 | 15.56° C | 25% | 1014.9 hPa | 0 mm | - | 3 W/m² | - |
| 1778242816 | 16.11° C | 24% | 1014.9 hPa | 0 mm | - | 2 W/m² | - |
| 1778242514 | 15.56° C | 24% | 1014.8 hPa | 0 mm | - | 1 W/m² | - |
| 1778242212 | 15.56° C | 24% | 1014.8 hPa | 0 mm | - | 0 W/m² | - |
| 1778241909 | 16.11° C | 24% | 1014.9 hPa | 0 mm | - | 0 W/m² | - |
| 1778241608 | 16.11° C | 24% | 1014.5 hPa | 0 mm | - | 0 W/m² | - |
| 1778241304 | 16.11° C | 24% | 1014.7 hPa | 0 mm | - | 0 W/m² | - |
| 1778241001 | 16.11° C | 24% | 1014.6 hPa | 0 mm | - | 0 W/m² | - |
| 1778240698 | 16.11° C | 24% | 1014.6 hPa | 0 mm | - | 0 W/m² | - |
| 1778240394 | 16.11° C | 24% | 1014.6 hPa | 0 mm | - | 0 W/m² | - |
| 1778240093 | 16.11° C | 24% | 1014.7 hPa | 0 mm | - | 0 W/m² | - |
| 1778239789 | 15.56° C | 25% | 1014.6 hPa | 0 mm | - | 0 W/m² | - |
| 1778239485 | 16.11° C | 25% | 1014.5 hPa | 0 mm | - | 0 W/m² | - |
| 1778239182 | 16.67° C | 25% | 1014.5 hPa | 0 mm | - | 0 W/m² | - |
| 1778238879 | 16.67° C | 24% | 1014.5 hPa | 0 mm | - | 0 W/m² | - |
| 1778238576 | 16.11° C | 24% | 1014.6 hPa | 0 mm | - | 0 W/m² | - |
| 1778238274 | 16.67° C | 24% | 1014.6 hPa | 0 mm | - | 0 W/m² | - |
* Rain latest hour (hover to see other rain measurements)
** Current wind speed in m/s (hover to see current wind gust speed)